Regional Weather Roundup
Issued by NWS

Home | Current Version | Previous Version | Graphics & Text | Print | Product List | Glossary On
Versions: 1 2 3 4 5 6 7 8 9 10 11 12 13 14 15 16 17 18 19 20 21 22 23 24 25 26 27 28 29 30 31 32 33 34 35 36 37 38 39 40 41 42 43 44 45 46 47 48 49 50
442
ASUS45 KTFX 241610
RWRMT
MONTANA REGIONAL WEATHER ROUNDUP
NATIONAL WEATHER SERVICE GREAT FALLS MT
1000 AM MDT TUE MAY 24 2016

NOTE: "FAIR" INDICATES FEW OR NO CLOUDS BELOW 12000 FEET WITH NO
SIGNIFICANT WEATHER AND/OR OBSTRUCTIONS TO VISIBILITY.

MTZ001>007-043-241700-
WEST OF THE DIVIDE

CITY           SKY/WX    TMP DP  RH WIND       PRES   REMARKS
KALISPELL      CLOUDY    50  43  77 VRB3      29.92F
MISSOULA       LGT RAIN  46  42  86 NW3       29.94F
BUTTE          LGT RAIN  39  36  89 CALM      29.94S
MULLAN PASS    LGT RAIN  36  35  96 VRB3      29.91S VSB<1/4
ANACONDA         N/A     43  37  81 SE7       29.92F
DEER LODGE       N/A     45  39  81 S5        29.93F
EUREKA           N/A     52  43  71 CALM        N/A
HAMILTON         N/A     48  43  81 CALM      29.92S
LIBBY            N/A     50  45  81 CALM      29.93S
PLAINS           N/A     50  44  79 CALM      29.95R
$$

MTZ008-052>055-241700-
SOUTHWEST MONTANA

CITY           SKY/WX    TMP DP  RH WIND       PRES   REMARKS
BOZEMAN        LGT RAIN  44  39  82 NW3       29.94S
DILLON         CLOUDY    44  36  73 CALM      29.92S
ENNIS            N/A    N/A N/A N/A MISG        N/A
TWIN BRIDGES     N/A     43  38  82 CALM      29.93S
$$

MTZ009-010-012-014-046-048-049-054-241700-
EAST SLOPES AND CENTRAL MONTANA

CITY           SKY/WX    TMP DP  RH WIND       PRES   REMARKS
CUT BANK       CLOUDY    49  41  74 VRB6      29.90R
GREAT FALLS    CLOUDY    47  39  74 S5        29.92R
MALMSTROM AFB  MOSUNNY   49  39  69 W8        29.92S
HELENA         PTSUNNY   50  40  68 E3        29.91F
CHOTEAU          N/A     48  37  66 CALM      29.91F
CONRAD           N/A     48  47  97 CALM      29.94R
$$

MTZ011-013-016-021-045-047-050-051-241700-
NORTH CENTRAL MONTANA

CITY           SKY/WX    TMP DP  RH WIND       PRES   REMARKS
HAVRE          LGT RAIN  48  45  89 W9        29.89R
LEWISTOWN      PTSUNNY   49  39  68 NW7       29.91S
N BAR RANCH    CLOUDY    48  36  61 CALM      29.93S
CHINOOK          N/A     48  46  93 W10       29.88R
$$

MTZ017>020-022>027-061-062-241700-
NORTHEAST MONTANA

CITY           SKY/WX    TMP DP  RH WIND       PRES   REMARKS
GLASGOW        CLOUDY    54  43  66 W13       29.86R
JORDAN           N/A     57  41  55 W10       29.89S
SIDNEY         MOSUNNY   61  43  51 S12       29.88S
WOLF POINT     PTSUNNY   58  43  57 W10       29.87S
PLENTYWOOD       N/A     54  43  66 SW14      29.85R
POPLAR           N/A     57  43  58 SW14      29.87S
SCOBEY           N/A     55  38  52 SW14      29.83R
$$

MTZ028>42-056>058-241700-
SOUTHCENTRAL AND SOUTHEAST MONTANA

CITY           SKY/WX    TMP DP  RH WIND       PRES   REMARKS
BAKER          SUNNY     59  39  47 W9        29.93S
BILLINGS       PTSUNNY   51  41  68 E6        29.92S
LIVINGSTON     CLOUDY    48  36  63 W7        29.92S
MILES CITY     MOSUNNY   56  40  55 SW3       29.91F
EKALAKA          N/A     59  37  43 NE2       29.92R
FORSYTH          N/A     54  43  66 CALM      29.91F
$$

REGIONAL REPORTS...DAKOTAS

CITY           SKY/WX    TMP DP  RH WIND       PRES   REMARKS
WILLISTON      PTSUNNY   59  42  53 W8        29.88S
MINOT          SUNNY     69  43  38 SW8       29.86S
DICKINSON      SUNNY     61  39  44 W9        29.90R
BEACH          PTSUNNY   57  39  51 W13       29.94R
CROSBY           N/A     59  43  55 SW18      29.87S
WATFORD CITY   PTSUNNY   61  41  48 W12       29.89S
BISMARCK       SUNNY     69  47  45 CALM      29.89S
GRAND FORKS    MOSUNNY   71  54  54 W5        29.84R
FARGO          SUNNY     79  47  32 S9        29.83R
BUFFALO SD       N/A     65  41  41 NE6       29.86S
RAPID CITY     SUNNY     64  41  42 E5        29.92F
$$

REGIONAL REPORTS...WYOMING/IDAHO/WASHINGTON

CITY           SKY/WX    TMP DP  RH WIND       PRES   REMARKS
GILLETTE       SUNNY     59  37  44 VRB6      29.92S
SHERIDAN       SUNNY     56  37  49 VRB3      29.91F
BUFFALO WY       N/A     57  36  45 S6        29.92F
CODY           MOSUNNY   50  37  62 CALM      29.91F
YELLOWSTONE LA   N/A     43  32  65 CALM      29.96F
IDAHO FALLS    CLOUDY    54  41  61 N8        29.87F
SALMON         CLOUDY    48  36  61 CALM      29.91F
BOISE          MOSUNNY   56  40  55 VRB5      29.87R
SPOKANE        LGT RAIN  51  45  79 SE6       29.91R
$$

REGIONAL REPORTS...ALBERTA

CITY           SKY/WX    TMP DP  RH WIND       PRES   REMARKS
EDMONTON       CLOUDY    50  41  71 S6        29.87S
CALGARY        MOSUNNY   52  37  58 VRB2      29.86S
LETHBRIDGE     PTSUNNY   50  43  76 NW12      29.89R
MEDICINE HAT   CLOUDY    50  48  93 NW9       29.86R
$$

REGIONAL REPORTS...SASKATCHEWAN

CITY           SKY/WX    TMP DP  RH WIND       PRES   REMARKS
SWIFT CURRENT  PTSUNNY   50  46  87 NW7       29.78S
REGINA         PTSUNNY   57  45  62 SW9G17    29.79R
SASKATOON      LGT RAIN  50  50 100 NE14G23   29.84R
$$




USA.gov is the U.S. government's official web portal to all federal, state and local government web resources and services.